Flag for Russia Weather past 2 weeks in Saint-Petersburg, Russia

36 °F

Passing clouds.

Feels Like: 33 °F
Forecast: 36 / 43 °F
Wind: 3 mph from North

Location: St. Petersburg

Current Time: Oct 7, 2015 at 2:17:37 AM

Latest Report: Oct 7, 2015 at 1:30 AM

Visibility: N/A

Pressure: 30.36 "Hg

Humidity: 87%

Dew point: 32 °F

Location of Saint-PetersburgLocation

Historic Weather in Saint-Petersburg — Graph


Saint-Petersburg temperature yesterday

Maximum temperature yesterday: 43 °F (at 12:00 PM)
Minimum temperature yesterday: 36 °F (at 4:30 AM)
Average temperature yesterday: 39 °F

Past Weeks' High & Low Weather Summary

High73 °F (Sep 24, 2:00 PM)100% (Sep 23, 4:00 AM)30.60 "Hg (Sep 23, 4:00 AM)
Low34 °F (Oct 7, 12:30 AM)43% (Oct 4, 3:00 PM)29.45 "Hg (Oct 2, 9:30 PM)
Average51 °F81%30.06 "Hg
* Reported Midnight between Sep 21 and Sep 22 — Oct 7 12:30 AM, Saint-Petersburg, Weather by CustomWeather, © 2015

Note: Actual official high and low records may vary slightly from our data, if they occured in-between our weather recording intervals... More about our weather records


Saint-Petersburg weather history for previous 24 hours

Time TempWeatherWind HumidityBarometerVisibility
12:30 AM
Wed, Oct 7
34 °FPassing clouds.3 mph93%30.36 "HgN/A
12:00 AM36 °FPassing clouds.6 mph81%30.36 "HgN/A
11:30 PM
Tue, Oct 6
36 °FPassing clouds.3 mph81%30.36 "HgN/A
11:00 PM36 °FClear.8 mph81%30.33 "Hg10 mi
10:30 PM37 °FClear.8 mph75%30.33 "Hg10 mi
10:00 PM36 °FPassing clouds.6 mph75%30.33 "HgN/A
9:30 PM37 °FPassing clouds.6 mph75%30.33 "HgN/A
9:00 PM37 °FClear.8 mph75%30.33 "Hg10 mi
8:30 PM37 °FClear.10 mph75%30.33 "Hg10 mi
8:00 PM37 °FPassing clouds.8 mph75%30.33 "HgN/A
7:30 PM37 °FPassing clouds.8 mph81%30.33 "HgN/A
7:00 PM37 °FPassing clouds.8 mph81%30.30 "HgN/A
6:30 PM37 °FScattered clouds.8 mph87%30.30 "HgN/A
6:00 PM39 °FBroken clouds.8 mph81%30.30 "HgN/A
5:30 PM41 °FBroken clouds.10 mph76%30.30 "HgN/A
5:00 PM39 °FPartly sunny.6 mph87%30.30 "HgN/A
4:30 PM37 °FSprinkles. Broken clouds.8 mph87%30.30 "Hg5 mi
4:00 PM43 °FPartly sunny.10 mph66%30.27 "HgN/A
3:30 PM43 °FBroken clouds.10 mph66%30.27 "HgN/A
3:00 PM43 °FBroken clouds.13 mph66%30.27 "HgN/A
2:30 PM41 °FBroken clouds.8 mph76%30.27 "HgN/A
2:00 PM41 °FPartly sunny.8 mph70%30.27 "HgN/A
1:30 PM41 °FPartly sunny.13 mph66%30.27 "HgN/A
1:00 PM43 °FPartly sunny.10 mph61%30.27 "HgN/A
12:30 PM41 °FPartly sunny.10 mph66%30.24 "HgN/A
12:00 PM43 °FPartly sunny.13 mph61%30.24 "HgN/A
11:30 AM41 °FScattered clouds.8 mph66%30.24 "HgN/A
11:00 AM41 °FScattered clouds.10 mph70%30.24 "HgN/A
10:30 AM41 °FScattered clouds.10 mph66%30.24 "HgN/A
10:00 AM39 °FScattered clouds.10 mph75%30.24 "HgN/A
9:30 AM39 °FScattered clouds.8 mph75%30.24 "HgN/A
9:00 AM39 °FPartly sunny.13 mph75%30.24 "HgN/A
8:30 AM37 °FPartly sunny.10 mph81%30.24 "HgN/A
8:00 AM37 °FPassing clouds.10 mph75%30.21 "HgN/A
7:30 AM37 °FPassing clouds.10 mph75%30.21 "HgN/A
7:00 AM36 °FClear.10 mph75%30.21 "Hg10 mi
6:30 AM36 °FPassing clouds.8 mph75%30.18 "HgN/A
6:00 AM37 °FClear.8 mph75%30.18 "Hg10 mi
5:30 AM37 °FPassing clouds.6 mph70%30.18 "HgN/A
5:00 AM37 °FClear.6 mph75%30.18 "Hg10 mi
4:30 AM36 °FClear.6 mph81%30.18 "Hg10 mi
4:00 AM37 °FClear.8 mph75%30.15 "Hg10 mi
3:30 AM37 °FClear.8 mph75%30.15 "Hg10 mi
3:00 AM37 °FPassing clouds.6 mph75%30.15 "HgN/A
2:30 AM37 °FPassing clouds.6 mph75%30.15 "HgN/A
2:00 AM39 °FPassing clouds.8 mph75%30.15 "HgN/A
Weather by CustomWeather, © 2015

See weather overviewHow to use our weather pages